Regional Weather Roundup
Issued by NWS

Home | Current Version | Previous Version | Graphics & Text | Print | Product List | Glossary On
Versions: 1 2 3 4 5 6 7 8 9 10 11 12 13 14 15 16 17 18 19 20 21 22 23 24 25 26 27 28 29 30 31 32 33 34 35 36 37 38 39 40 41 42 43 44 45 46 47 48 49 50
000
ASUS43 KBIS 272302
RWRND

NORTH DAKOTA REGIONAL WEATHER ROUNDUP
NATIONAL WEATHER SERVICE BISMARCK ND
600 PM CDT MON JUL 27 2015

NOTE: "FAIR" INDICATES FEW OR NO CLOUDS BELOW 12,000 FEET WITH NO
SIGNIFICANT WEATHER AND/OR OBSTRUCTIONS TO VISIBILITY.


NDZ001>003-009>011-017-280000-
NORTHWEST NORTH DAKOTA

CITY           SKY/WX    TMP DP  RH WIND       PRES   REMARKS
WILLISTON      PTSUNNY   90  64  42 E13G22    29.57F HX  91
MINOT          PTSUNNY   89  66  46 SE15      29.64F HX  91
MINOT AFB      MOSUNNY   88  71  56 SE13      29.63F HX  93
$$

NDZ018>021-031>035-040>046-280000-
SOUTHWEST NORTH DAKOTA

CITY           SKY/WX    TMP DP  RH WIND       PRES   REMARKS
BISMARCK       SUNNY     92  66  42 S24G30    29.64F HX  94
DICKINSON      PTSUNNY   86  64  47 SE17G25   29.61F
GARRISON         N/A     86  70  58 SE21G26   29.63F HX  90
HETTINGER ARPT MOSUNNY   86  63  45 S15G24    29.68R
$$

NDZ004>008-012>016-024-026-027-054-280000-
NORTHEAST NORTH DAKOTA

CITY           SKY/WX    TMP DP  RH WIND       PRES   REMARKS
GRAND FORKS    PTSUNNY   86  71  60 SE20G26   29.76F HX  91
DEVILS LAKE    MOSUNNY   84  70  61 SE18      29.73F
$$

NDZ022-023-025-028>030-036>039-047>053-280000-
SOUTHEAST NORTH DAKOTA

CITY           SKY/WX    TMP DP  RH WIND       PRES   REMARKS
FARGO          MOSUNNY   89  69  51 SE15G24   29.76F HX  93
JAMESTOWN      MOSUNNY   86  75  69 SE16      29.72F HX  95
$$




USA.gov is the U.S. government's official web portal to all federal, state and local government web resources and services.